HST
1 20580U 90037B   24119.85786097  .00007717  00000-0  37014-3 0  9991
2 20580  28.4691 315.4633 0002026 214.1569 145.8893 15.17027156669532
ISS (ZARYA)
1 25544U 98067A   24120.22726588  .00019100  00000-0  33314-3 0  9997
2 25544  51.6367 198.1689 0003612 120.7165 239.4180 15.50729139450958
CXO
1 25867U 99040B   24120.27235969  .00001005  00000-0  00000+0 0  9997
2 25867  40.0637 158.6729 8932772 292.9099   1.1410  0.37811371 25539